Skip Page Navigation
NASA JPL Caltech
NASA Logo - Jet Propulsion Laboratory + View the NASA Portal
+ Near-Earth Object (NEO) Program
Search JPL
JPL Home Earth Solar System Stars & Galaxies Technology
JPL Solar System Dynamics
BODIES ORBITS EPHEMERIDES TOOLS PHYSICAL DATA DISCOVERY FAQ SITE MAP
JPL Small-Body Database Browser
Search: [ help ]  
28457 Chloeanassis (2000 AX143)
Classification: Main-belt Asteroid          SPK-ID: 2028457
Ephemeris | Orbit Diagram | Orbital Elements | Physical Parameters | Discovery Circumstances ]

[ hide orbit diagram ]
Orbit Diagram
Note: Make sure you have Java enabled on your browser to see the applet. This applet is provided as a 3D orbit visualization tool. The applet was implemented using 2-body methods, and hence should not be used for determining accurate long-term trajectories (over several years or decades) or planetary encounter circumstances. For accurate long-term ephemerides, please instead use our Horizons system.
Orbit Viewer

Additional Notes: the orbits shown in the applet are color coded. The planets are white lines, and the asteroid/comet is a blue line. The bright white line indicates the portion of the orbit that is above the ecliptic plane, and the darker portion is below the ecliptic plane. Likewise for the asteroid/comet orbit, the light blue indicates the portion above the ecliptic plane, and the dark blue the portion below the ecliptic plane.

Orbit Viewer applet originally written and kindly provided by Osamu Ajiki (AstroArts), and further modified by Ron Baalke (JPL).


Orbital Elements at Epoch 2456400.5 (2013-Apr-18.0) TDB
Reference: MPO247594 (heliocentric ecliptic J2000)
 Element Value Uncertainty (1-sigma)   Units 
e 0.0828984 n/a  
a 2.3430627 n/a AU
q 2.1488266 n/a AU
i 6.23761 n/a deg
node 283.76057 n/a deg
peri 326.38208 n/a deg
M 152.46331 n/a deg
tp 2455845.6991390
(2011-Oct-11.19913900)
n/a JED
period 1310.0090110
3.59
n/a
n/a
d
yr
n 0.27480727 n/a deg/d
Q 2.5372988 n/a AU
  Orbit Determination Parameters
   # obs. used (total)      607  
   first obs. used      1987-??-??  
   last obs. used      2012-12-24  
   # oppositions      12  
   planetary ephem.      DE403  
   condition code      0  
   fit RMS      0.52  
   data source      MPC:mpn  
   producer      MPCLINUX  

Additional Information
 T_jup = 3.550 

Ephemeris | Orbit Diagram | Orbital Elements | Physical Parameters | Discovery Circumstances ]

Physical Parameter Table
Parameter Symbol Value Units Sigma Reference Notes
absolute magnitude H 14.8 mag n/a PDS3 (MPO 15370)  

28457 Chloeanassis           Discovered 2000 Jan. 5 by the Lincoln Laboratory Near-Earth Asteroid Research Team at Socorro.
Chloe Anassis (b. 1995) was awarded second place in the 2011 Intel International Science and Engineering Fair for her environmental sciences project. She attends the Study School, Westmount, Quebec, Canada.
NOTE: some special characters may not display properly (any characters within {} are an attempt to place the proper accent above a character)
Reference: 20121029/MPCPages.arcLast Updated: 2013-03-29

Alternate Designations
 2000 AX143 = 1987 QK4 
Ephemeris | Orbit Diagram | Orbital Elements | Physical Parameters | Discovery Circumstances ]
ABOUT SSD CREDITS/AWARDS PRIVACY/COPYRIGHT GLOSSARY LINKS
FirstGov 2013-May-18 11:23 UT
(server date/time)  
NASA Home Page
Site Manager:   Donald K. Yeomans
Webmaster  Alan B. Chamberlin